| time (UTC) | temp C | wind direction | speed KPH | gust KPH | rain 1hr cm | rain 24hr cm | rain mn cm | humidity % | barometer mb |
| 20260906213015 | 31 | 123 | 6.4 | 16.1 | 0.00 | 0.00 | 0.00 | 41 | 1004.4 |
| 20260906212516 | 31 | 150 | 6.4 | 14.5 | 0.00 | 0.00 | 0.00 | 44 | 1004.4 |
| 20260906212013 | 31 | 127 | 4.8 | 17.7 | 0.00 | 0.00 | 0.00 | 43 | 1004.3 |
| 20260906211513 | 31 | 116 | 6.4 | 17.7 | 0.00 | 0.00 | 0.00 | 44 | 1004.4 |
| 20260906211011 | 31 | 190 | 9.7 | 17.7 | 0.00 | 0.00 | 0.00 | 42 | 1004.5 |
| 20260906210511 | 31 | 107 | 8.0 | 19.3 | 0.00 | 0.00 | 0.00 | 46 | 1004.5 |
| 20260906205511 | 31 | 136 | 9.7 | 17.7 | 0.00 | 0.00 | 0.00 | 44 | 1004.5 |
| 20260906205009 | 30 | 86 | 9.7 | 17.7 | 0.00 | 0.00 | 0.00 | 44 | 1004.5 |
| 20260906204509 | 30 | 111 | 6.4 | 16.1 | 0.00 | 0.00 | 0.00 | 42 | 1004.5 |
| 20260906204007 | 30 | 122 | 9.7 | 16.1 | 0.00 | 0.00 | 0.00 | 46 | 1004.6 |
| 20260906203507 | 30 | 116 | 6.4 | 14.5 | 0.00 | 0.00 | 0.00 | 43 | 1004.7 |
| 20260906203007 | 30 | 93 | 8.0 | 14.5 | 0.00 | 0.00 | 0.00 | 42 | 1004.7 |
| 20260906202505 | 30 | 144 | 6.4 | 17.7 | 0.00 | 0.00 | 0.00 | 43 | 1004.7 |
| 20260906202005 | 30 | 103 | 3.2 | 14.5 | 0.00 | 0.00 | 0.00 | 46 | 1004.8 |
| 20260906201504 | 30 | 129 | 8.0 | 16.1 | 0.00 | 0.00 | 0.00 | 48 | 1004.8 |
| 20260906201002 | 30 | 65 | 8.0 | 16.1 | 0.00 | 0.00 | 0.00 | 46 | 1004.8 |
| 20260906200504 | 30 | 133 | 8.0 | 17.7 | 0.00 | 0.00 | 0.00 | 46 | 1004.8 |
| 20260906195501 | 30 | 93 | 12.9 | 17.7 | 0.00 | 0.00 | 0.00 | 47 | 1004.9 |
| 20260906195059 | 29 | 192 | 1.6 | 12.9 | 0.00 | 0.00 | 0.00 | 49 | 1005.0 |
| 20260906194611 | 29 | 115 | 4.8 | 12.9 | 0.00 | 0.00 | 0.00 | 47 | 1005.0 |
| 20260906194200 | 29 | 94 | 8.0 | 14.5 | 0.00 | 0.00 | 0.00 | 47 | 1005.0 |
| 20260906193558 | 29 | 105 | 8.0 | 22.5 | 0.00 | 0.00 | 0.00 | 46 | 1005.1 |
| 20260906193057 | 29 | 109 | 6.4 | 14.5 | 0.00 | 0.00 | 0.00 | 48 | 1005.1 |
| 20260906192555 | 28 | 51 | 6.4 | 16.1 | 0.00 | 0.00 | 0.00 | 48 | 1005.2 |
| 20260906192055 | 28 | 62 | 9.7 | 22.5 | 0.00 | 0.00 | 0.00 | 45 | 1005.3 |
| 20260906191554 | 28 | 127 | 12.9 | 22.5 | 0.00 | 0.00 | 0.00 | 48 | 1005.4 |
| 20260906191051 | 28 | 130 | 8.0 | 16.1 | 0.00 | 0.00 | 0.00 | 51 | 1005.5 |
| 20260906190550 | 28 | 107 | 3.2 | 17.7 | 0.00 | 0.00 | 0.00 | 53 | 1005.6 |
| 20260906185552 | 28 | 87 | 6.4 | 19.3 | 0.00 | 0.00 | 0.00 | 51 | 1005.8 |
| 20260906185051 | 28 | 114 | 12.9 | 19.3 | 0.00 | 0.00 | 0.00 | 52 | 1005.9 |
| 20260906184548 | 27 | 36 | 3.2 | 12.9 | 0.00 | 0.00 | 0.00 | 54 | 1006.2 |
| 20260906184047 | 27 | 171 | 4.8 | 12.9 | 0.00 | 0.00 | 0.00 | 54 | 1006.3 |
| 20260906183545 | 27 | 103 | 3.2 | 12.9 | 0.00 | 0.00 | 0.00 | 55 | 1006.2 |
| 20260906183054 | 27 | 138 | 3.2 | 12.9 | 0.00 | 0.00 | 0.00 | 55 | 1006.4 |
| 20260906182542 | 27 | 110 | 6.4 | 12.9 | 0.00 | 0.00 | 0.00 | 57 | 1006.5 |
| 20260906182042 | 27 | 170 | 3.2 | 11.3 | 0.00 | 0.00 | 0.00 | 57 | 1006.6 |
| 20260906181542 | 27 | 187 | 6.4 | 11.3 | 0.00 | 0.00 | 0.00 | 59 | 1006.7 |
| 20260906181040 | 26 | 302 | 1.6 | 8.0 | 0.00 | 0.00 | 0.00 | 60 | 1006.8 |
| 20260906180539 | 26 | 206 | 3.2 | 14.5 | 0.00 | 0.00 | 0.00 | 60 | 1006.9 |
| 20260906175538 | 26 | 108 | 4.8 | 14.5 | 0.00 | 0.00 | 0.00 | 57 | 1007.1 |
| 20260906175038 | 26 | 76 | 4.8 | 16.1 | 0.00 | 0.00 | 0.00 | 57 | 1007.2 |
| 20260906174536 | 26 | 100 | 9.7 | 14.5 | 0.00 | 0.00 | 0.00 | 58 | 1007.1 |
| 20260906174036 | 26 | 76 | 3.2 | 12.9 | 0.00 | 0.00 | 0.00 | 60 | 1007.2 |
| 20260906173533 | 26 | 113 | 6.4 | 14.5 | 0.00 | 0.00 | 0.00 | 59 | 1007.5 |
| 20260906173032 | 26 | 99 | 3.2 | 16.1 | 0.00 | 0.00 | 0.00 | 61 | 1007.5 |
| 20260906172533 | 25 | 167 | 3.2 | 16.1 | 0.00 | 0.00 | 0.00 | 61 | 1007.6 |
| 20260906172029 | 25 | 138 | 6.4 | 16.1 | 0.00 | 0.00 | 0.00 | 62 | 1007.8 |
| 20260906171528 | 25 | 98 | 8.0 | 16.1 | 0.00 | 0.00 | 0.00 | 63 | 1007.9 |
| 20260906171026 | 25 | 127 | 8.0 | 14.5 | 0.00 | 0.00 | 0.00 | 62 | 1008.0 |
| 20260906170525 | 25 | 184 | 4.8 | 8.0 | 0.00 | 0.00 | 0.00 | 65 | 1008.0 |
| 20260906165524 | 25 | 174 | 4.8 | 12.9 | 0.00 | 0.00 | 0.00 | 64 | 1008.0 |
| 20260906165022 | 25 | 69 | 4.8 | 12.9 | 0.00 | 0.00 | 0.00 | 64 | 1008.0 |
| 20260906164521 | 24 | 98 | 1.6 | 12.9 | 0.00 | 0.00 | 0.00 | 65 | 1008.0 |
| 20260906164020 | 24 | 110 | 1.6 | 12.9 | 0.00 | 0.00 | 0.00 | 65 | 1008.1 |
| 20260906163520 | 24 | 106 | 4.8 | 11.3 | 0.00 | 0.00 | 0.00 | 66 | 1008.0 |
| 20260906163019 | 23 | 134 | 4.8 | 12.9 | 0.00 | 0.00 | 0.00 | 66 | 1008.0 |
| 20260906162519 | 23 | 128 | 4.8 | 12.9 | 0.00 | 0.00 | 0.00 | 65 | 1008.0 |
| 20260906162018 | 23 | 113 | 6.4 | 9.7 | 0.00 | 0.00 | 0.00 | 65 | 1008.0 |
| 20260906161518 | 23 | 34 | 1.6 | 12.9 | 0.00 | 0.00 | 0.00 | 66 | 1008.0 |
| 20260906161019 | 23 | 76 | 1.6 | 12.9 | 0.00 | 0.00 | 0.00 | 67 | 1008.0 |
| 20260906160518 | 23 | 51 | 0.0 | 8.0 | 0.00 | 0.00 | 0.00 | 67 | 1008.1 |
| 20260906155521 | 23 | 44 | 3.2 | 11.3 | 0.00 | 0.00 | 0.00 | 67 | 1008.2 |
| 20260906155018 | 23 | 64 | 1.6 | 12.9 | 0.00 | 0.00 | 0.00 | 67 | 1008.3 |
| 20260906154518 | 23 | 73 | 1.6 | 8.0 | 0.00 | 0.00 | 0.00 | 70 | 1008.2 |
| 20260906154018 | 22 | 16 | 0.0 | 9.7 | 0.00 | 0.00 | 0.00 | 70 | 1008.2 |
| 20260906153518 | 22 | 90 | 4.8 | 9.7 | 0.00 | 0.00 | 0.00 | 71 | 1008.3 |
| 20260906153022 | 21 | 69 | 1.6 | 8.0 | 0.00 | 0.00 | 0.00 | 71 | 1008.4 |
| 20260906152517 | 21 | 84 | 1.6 | 11.3 | 0.00 | 0.00 | 0.00 | 70 | 1008.4 |
| 20260906152017 | 22 | 114 | 6.4 | 11.3 | 0.00 | 0.00 | 0.00 | 70 | 1008.4 |
| 20260906151517 | 21 | 82 | 1.6 | 9.7 | 0.00 | 0.00 | 0.00 | 72 | 1008.5 |
| 20260906151018 | 21 | 75 | 3.2 | 9.7 | 0.00 | 0.00 | 0.00 | 72 | 1008.6 |
| 20260906150517 | 21 | 355 | 3.2 | 8.0 | 0.00 | 0.00 | 0.00 | 73 | 1008.6 |
| 20260906145521 | 21 | 15 | 1.6 | 6.4 | 0.00 | 0.00 | 0.00 | 73 | 1008.7 |
| 20260906145023 | 20 | 36 | 1.6 | 6.4 | 0.00 | 0.00 | 0.00 | 75 | 1008.6 |
| 20260906144518 | 20 | 76 | 1.6 | 8.0 | 0.00 | 0.00 | 0.00 | 76 | 1008.6 |
| 20260906144015 | 20 | 60 | 3.2 | 6.4 | 0.00 | 0.00 | 0.00 | 78 | 1008.7 |
| 20260906143520 | 19 | 338 | 0.0 | 3.2 | 0.00 | 0.00 | 0.00 | 78 | 1008.7 |
| 20260906143018 | 18 | 330 | 0.0 | 4.8 | 0.00 | 0.00 | 0.00 | 78 | 1008.6 |
| 20260906142515 | 18 | 330 | 1.6 | 4.8 | 0.00 | 0.00 | 0.00 | 78 | 1008.7 |
| 20260906142015 | 18 | 330 | 1.6 | 8.0 | 0.00 | 0.00 | 0.00 | 78 | 1008.7 |
| 20260906141514 | 18 | 330 | 3.2 | 8.0 | 0.00 | 0.00 | 0.00 | 78 | 1008.7 |
| 20260906141014 | 18 | 288 | 3.2 | 6.4 | 0.00 | 0.00 | 0.00 | 79 | 1008.7 |
| 20260906140515 | 18 | 290 | 3.2 | 8.0 | 0.00 | 0.00 | 0.00 | 79 | 1008.7 |
| 20260906135515 | 17 | 304 | 3.2 | 8.0 | 0.00 | 0.00 | 0.00 | 81 | 1008.6 |
| 20260906135014 | 17 | 296 | 3.2 | 8.0 | 0.00 | 0.00 | 0.00 | 83 | 1008.6 |
| 20260906134515 | 17 | 307 | 3.2 | 8.0 | 0.00 | 0.00 | 0.00 | 85 | 1008.7 |
| 20260906134014 | 17 | 296 | 4.8 | 8.0 | 0.00 | 0.00 | 0.00 | 85 | 1008.7 |
| 20260906133513 | 17 | 344 | 1.6 | 4.8 | 0.00 | 0.00 | 0.00 | 86 | 1008.6 |
| 20260906133013 | 16 | 346 | 0.0 | 4.8 | 0.00 | 0.00 | 0.00 | 86 | 1008.5 |
| 20260906132514 | 16 | 346 | 1.6 | 4.8 | 0.00 | 0.00 | 0.00 | 86 | 1008.4 |
| 20260906132013 | 16 | 346 | 1.6 | 4.8 | 0.00 | 0.00 | 0.00 | 86 | 1008.4 |
| 20260906131513 | 16 | 346 | 0.0 | 4.8 | 0.00 | 0.00 | 0.00 | 86 | 1008.3 |
| 20260906131012 | 16 | 341 | 0.0 | 4.8 | 0.00 | 0.00 | 0.00 | 86 | 1008.4 |
| 20260906130512 | 16 | 335 | 0.0 | 4.8 | 0.00 | 0.00 | 0.00 | 86 | 1008.2 |
| 20260906125512 | 16 | 360 | 0.0 | 4.8 | 0.00 | 0.00 | 0.00 | 86 | 1008.4 |
| 20260906125012 | 16 | 360 | 1.6 | 4.8 | 0.00 | 0.00 | 0.00 | 86 | 1008.4 |
| 20260906124513 | 16 | 360 | 0.0 | 3.2 | 0.00 | 0.00 | 0.00 | 86 | 1008.2 |
| 20260906124014 | 16 | 360 | 1.6 | 4.8 | 0.00 | 0.00 | 0.00 | 85 | 1008.3 |
| 20260906123511 | 16 | 360 | 0.0 | 4.8 | 0.00 | 0.00 | 0.00 | 85 | 1008.3 |
| 20260906123014 | 16 | 360 | 1.6 | 4.8 | 0.00 | 0.00 | 0.00 | 85 | 1008.4 |
| 20260906122510 | 16 | 360 | 0.0 | 4.8 | 0.00 | 0.00 | 0.00 | 83 | 1008.5 |
| 20260906122014 | 16 | 360 | 1.6 | 4.8 | 0.00 | 0.00 | 0.00 | 84 | 1008.5 |
| 20260906121510 | 16 | 360 | 1.6 | 4.8 | 0.00 | 0.00 | 0.00 | 84 | 1008.3 |
| 20260906121008 | 16 | 360 | 1.6 | 4.8 | 0.00 | 0.00 | 0.00 | 84 | 1008.3 |
| 20260906120510 | 16 | 360 | 1.6 | 3.2 | 0.00 | 0.00 | 0.00 | 83 | 1008.4 |
| 20260906120006 | 16 | 360 | 0.0 | 3.2 | 0.00 | 0.00 | 0.00 | 83 | 1008.4 |
| 20260906115507 | 16 | 360 | 0.0 | 3.2 | 0.00 | 0.00 | 0.00 | 83 | 1008.3 |
| 20260906115005 | 17 | 360 | 0.0 | 3.2 | 0.00 | 0.00 | 0.00 | 82 | 1008.3 |
| 20260906114504 | 17 | 360 | 1.6 | 4.8 | 0.00 | 0.00 | 0.00 | 83 | 1008.5 |
| 20260906114005 | 17 | 360 | 3.2 | 4.8 | 0.00 | 0.00 | 0.00 | 83 | 1008.3 |
| 20260906113502 | 17 | 57 | 0.0 | 1.6 | 0.00 | 0.00 | 0.00 | 83 | 1008.3 |
| 20260906112502 | 17 | 58 | 0.0 | 3.2 | 0.00 | 0.00 | 0.00 | 83 | 1008.2 |
| 20260906112002 | 17 | 58 | 0.0 | 4.8 | 0.00 | 0.00 | 0.00 | 83 | 1008.1 |
| 20260906111502 | 17 | 57 | 1.6 | 4.8 | 0.00 | 0.00 | 0.00 | 84 | 1008.1 |
| 20260906111002 | 17 | 79 | 1.6 | 3.2 | 0.00 | 0.00 | 0.00 | 83 | 1008.1 |
| 20260906110601 | 17 | 80 | 1.6 | 3.2 | 0.00 | 0.00 | 0.00 | 82 | 1008.2 |
| 20260906105700 | 17 | 81 | 0.0 | 3.2 | 0.00 | 0.00 | 0.00 | 82 | 1008.1 |
| 20260906105059 | 17 | 80 | 1.6 | 3.2 | 0.00 | 0.00 | 0.00 | 82 | 1008.0 |
| 20260906104600 | 18 | 82 | 0.0 | 4.8 | 0.00 | 0.00 | 0.00 | 81 | 1007.8 |
| 20260906104059 | 18 | 82 | 1.6 | 6.4 | 0.00 | 0.00 | 0.00 | 81 | 1008.0 |
| 20260906103558 | 17 | 80 | 3.2 | 12.9 | 0.00 | 0.00 | 0.00 | 82 | 1008.0 |
| 20260906102557 | 17 | 65 | 4.8 | 6.4 | 0.00 | 0.00 | 0.00 | 77 | 1008.0 |
| 20260906102057 | 17 | 330 | 0.0 | 0.0 | 0.00 | 0.00 | 0.00 | 75 | 1008.0 |
| 20260906101556 | 17 | 331 | 0.0 | 0.0 | 0.00 | 0.00 | 0.00 | 75 | 1008.1 |
| 20260906101056 | 18 | 332 | 0.0 | 3.2 | 0.00 | 0.00 | 0.00 | 75 | 1008.1 |
| 20260906100557 | 18 | 360 | 0.0 | 3.2 | 0.00 | 0.00 | 0.00 | 74 | 1008.1 |
| 20260906100053 | 18 | 332 | 0.0 | 4.8 | 0.00 | 0.00 | 0.00 | 73 | 1008.0 |
| 20260906095554 | 18 | 332 | 0.0 | 6.4 | 0.00 | 0.00 | 0.00 | 73 | 1008.0 |
| 20260906095053 | 18 | 332 | 1.6 | 6.4 | 0.00 | 0.00 | 0.00 | 73 | 1008.0 |
| 20260906094606 | 18 | 331 | 0.0 | 4.8 | 0.00 | 0.00 | 0.00 | 73 | 1007.9 |
| 20260906094052 | 18 | 296 | 1.6 | 6.4 | 0.00 | 0.00 | 0.00 | 73 | 1007.8 |
| 20260906093552 | 18 | 329 | 3.2 | 6.4 | 0.00 | 0.00 | 0.00 | 73 | 1007.7 |
| 20260906092553 | 18 | 329 | 1.6 | 4.8 | 0.00 | 0.00 | 0.00 | 72 | 1007.5 |
| 20260906092052 | 18 | 329 | 1.6 | 4.8 | 0.00 | 0.00 | 0.00 | 72 | 1007.4 |
| 20260906091549 | 18 | 329 | 1.6 | 4.8 | 0.00 | 0.00 | 0.00 | 71 | 1007.5 |
| 20260906091048 | 19 | 329 | 0.0 | 4.8 | 0.00 | 0.00 | 0.00 | 71 | 1007.4 |
| 20260906090547 | 19 | 329 | 1.6 | 4.8 | 0.00 | 0.00 | 0.00 | 70 | 1007.3 |
| 20260906090111 | 19 | 329 | 1.6 | 4.8 | 0.00 | 0.00 | 0.00 | 70 | 1007.3 |
| 20260906085549 | 19 | 330 | 1.6 | 4.8 | 0.00 | 0.00 | 0.00 | 70 | 1007.2 |
| 20260906085046 | 19 | 317 | 0.0 | 6.4 | 0.00 | 0.00 | 0.00 | 69 | 1007.3 |
| 20260906084553 | 19 | 300 | 1.6 | 6.4 | 0.00 | 0.00 | 0.00 | 69 | 1007.1 |
| 20260906084047 | 19 | 355 | 3.2 | 6.4 | 0.00 | 0.00 | 0.00 | 69 | 1007.2 |
| 20260906083545 | 19 | 325 | 1.6 | 9.7 | 0.00 | 0.00 | 0.00 | 69 | 1007.1 |
| 20260906082545 | 19 | 360 | 1.6 | 6.4 | 0.00 | 0.00 | 0.00 | 69 | 1007.3 |
| 20260906082046 | 19 | 355 | 1.6 | 6.4 | 0.00 | 0.00 | 0.00 | 69 | 1007.5 |
| 20260906081546 | 19 | 318 | 3.2 | 6.4 | 0.00 | 0.00 | 0.00 | 68 | 1007.6 |
| 20260906081045 | 20 | 325 | 1.6 | 4.8 | 0.00 | 0.00 | 0.00 | 68 | 1007.5 |
| 20260906080544 | 20 | 325 | 1.6 | 8.0 | 0.00 | 0.00 | 0.00 | 67 | 1007.4 |
| 20260906080044 | 20 | 325 | 3.2 | 9.7 | 0.00 | 0.00 | 0.00 | 67 | 1007.6 |
| 20260906075544 | 20 | 13 | 3.2 | 9.7 | 0.00 | 0.00 | 0.00 | 67 | 1007.3 |
| 20260906075044 | 20 | 30 | 3.2 | 9.7 | 0.00 | 0.00 | 0.00 | 67 | 1007.3 |
| 20260906074551 | 19 | 46 | 1.6 | 9.7 | 0.00 | 0.00 | 0.00 | 67 | 1007.4 |
| 20260906074044 | 20 | 5 | 3.2 | 6.4 | 0.00 | 0.00 | 0.00 | 67 | 1007.3 |
| 20260906073546 | 20 | 18 | 1.6 | 8.0 | 0.00 | 0.00 | 0.00 | 67 | 1007.5 |
| 20260906072543 | 20 | 27 | 3.2 | 9.7 | 0.00 | 0.00 | 0.00 | 66 | 1007.5 |
| 20260906072042 | 20 | 355 | 3.2 | 9.7 | 0.00 | 0.00 | 0.00 | 64 | 1007.6 |
| 20260906071541 | 20 | 339 | 1.6 | 4.8 | 0.00 | 0.00 | 0.00 | 63 | 1007.6 |
| 20260906071041 | 20 | 335 | 1.6 | 6.4 | 0.00 | 0.00 | 0.00 | 62 | 1007.8 |
| 20260906070542 | 20 | 298 | 1.6 | 6.4 | 0.00 | 0.00 | 0.00 | 62 | 1008.0 |
| 20260906070042 | 20 | 293 | 1.6 | 6.4 | 0.00 | 0.00 | 0.00 | 62 | 1008.0 |
| 20260906065541 | 20 | 315 | 3.2 | 4.8 | 0.00 | 0.00 | 0.00 | 62 | 1007.9 |
| 20260906065041 | 20 | 315 | 1.6 | 3.2 | 0.00 | 0.00 | 0.00 | 62 | 1007.8 |
| 20260906064543 | 20 | 314 | 0.0 | 4.8 | 0.00 | 0.00 | 0.00 | 63 | 1007.8 |
| 20260906064040 | 20 | 314 | 1.6 | 4.8 | 0.00 | 0.00 | 0.00 | 64 | 1007.8 |
| 20260906063540 | 20 | 314 | 0.0 | 0.0 | 0.00 | 0.00 | 0.00 | 63 | 1008.1 |
| 20260906062538 | 21 | 314 | 0.0 | 1.6 | 0.00 | 0.00 | 0.00 | 62 | 1007.7 |
| 20260906062040 | 21 | 314 | 0.0 | 6.4 | 0.00 | 0.00 | 0.00 | 61 | 1007.8 |
| 20260906061547 | 21 | 314 | 1.6 | 6.4 | 0.00 | 0.00 | 0.00 | 61 | 1007.7 |
| 20260906061037 | 21 | 321 | 3.2 | 6.4 | 0.00 | 0.00 | 0.00 | 60 | 1007.7 |
| 20260906060540 | 21 | 321 | 3.2 | 6.4 | 0.00 | 0.00 | 0.00 | 60 | 1007.6 |
| 20260906060037 | 21 | 9 | 1.6 | 8.0 | 0.00 | 0.00 | 0.00 | 59 | 1007.5 |
| 20260906055538 | 21 | 327 | 4.8 | 8.0 | 0.00 | 0.00 | 0.00 | 60 | 1007.3 |
| 20260906055039 | 21 | 314 | 3.2 | 4.8 | 0.00 | 0.00 | 0.00 | 59 | 1007.5 |
| 20260906054541 | 21 | 306 | 1.6 | 4.8 | 0.00 | 0.00 | 0.00 | 59 | 1007.4 |
| 20260906054035 | 21 | 306 | 0.0 | 4.8 | 0.00 | 0.00 | 0.00 | 57 | 1007.5 |
| 20260906053533 | 21 | 306 | 3.2 | 4.8 | 0.00 | 0.00 | 0.00 | 56 | 1007.4 |
| 20260906052535 | 22 | 37 | 0.0 | 3.2 | 0.00 | 0.00 | 0.00 | 55 | 1007.5 |
| 20260906052032 | 22 | 37 | 0.0 | 8.0 | 0.00 | 0.00 | 0.00 | 55 | 1007.3 |
| 20260906051537 | 22 | 37 | 0.0 | 8.0 | 0.00 | 0.00 | 0.00 | 54 | 1007.2 |
| 20260906051033 | 22 | 65 | 0.0 | 9.7 | 0.00 | 0.00 | 0.00 | 53 | 1007.2 |
| 20260906050530 | 22 | 61 | 1.6 | 9.7 | 0.00 | 0.00 | 0.00 | 52 | 1007.1 |
| 20260906050029 | 22 | 89 | 1.6 | 11.3 | 0.00 | 0.00 | 0.00 | 51 | 1006.9 |
| 20260906045529 | 22 | 76 | 0.0 | 6.4 | 0.00 | 0.00 | 0.00 | 50 | 1006.8 |
| 20260906045031 | 22 | 76 | 0.0 | 12.9 | 0.00 | 0.00 | 0.00 | 49 | 1006.7 |
| 20260906044527 | 22 | 78 | 6.4 | 12.9 | 0.00 | 0.00 | 0.00 | 48 | 1006.8 |
| 20260906044030 | 22 | 315 | 0.0 | 4.8 | 0.00 | 0.00 | 0.00 | 49 | 1006.5 |
| 20260906043525 | 22 | 314 | 3.2 | 8.0 | 0.00 | 0.00 | 0.00 | 49 | 1006.5 |
| 20260906042524 | 23 | 343 | 3.2 | 6.4 | 0.00 | 0.00 | 0.00 | 48 | 1006.5 |
| 20260906042024 | 23 | 26 | 1.6 | 6.4 | 0.00 | 0.00 | 0.00 | 48 | 1006.5 |
| 20260906041533 | 23 | 312 | 1.6 | 4.8 | 0.00 | 0.00 | 0.00 | 47 | 1006.4 |
| 20260906041022 | 23 | 312 | 0.0 | 3.2 | 0.00 | 0.00 | 0.00 | 47 | 1006.4 |
| 20260906040520 | 23 | 311 | 0.0 | 4.8 | 0.00 | 0.00 | 0.00 | 46 | 1006.3 |
| 20260906040021 | 23 | 311 | 1.6 | 6.4 | 0.00 | 0.00 | 0.00 | 46 | 1006.3 |
| 20260906035522 | 23 | 304 | 3.2 | 9.7 | 0.00 | 0.00 | 0.00 | 45 | 1006.2 |
| 20260906035019 | 23 | 290 | 4.8 | 6.4 | 0.00 | 0.00 | 0.00 | 46 | 1006.2 |
| 20260906034518 | 24 | 355 | 1.6 | 9.7 | 0.00 | 0.00 | 0.00 | 46 | 1006.3 |
| 20260906034018 | 24 | 355 | 1.6 | 9.7 | 0.00 | 0.00 | 0.00 | 45 | 1006.3 |
| 20260906033517 | 24 | 336 | 3.2 | 12.9 | 0.00 | 0.00 | 0.00 | 45 | 1006.2 |
| 20260906032618 | 24 | 313 | 6.4 | 9.7 | 0.00 | 0.00 | 0.00 | 45 | 1006.3 |
| 20260906032017 | 24 | 355 | 3.2 | 9.7 | 0.00 | 0.00 | 0.00 | 46 | 1006.3 |
| 20260906031519 | 24 | 311 | 4.8 | 9.7 | 0.00 | 0.00 | 0.00 | 45 | 1006.2 |
| 20260906031016 | 25 | 62 | 1.6 | 9.7 | 0.00 | 0.00 | 0.00 | 45 | 1006.3 |
| 20260906030515 | 25 | 46 | 4.8 | 9.7 | 0.00 | 0.00 | 0.00 | 45 | 1006.3 |
| 20260906030013 | 25 | 9 | 4.8 | 9.7 | 0.00 | 0.00 | 0.00 | 44 | 1006.0 |
| 20260906025517 | 25 | 51 | 3.2 | 9.7 | 0.00 | 0.00 | 0.00 | 43 | 1005.9 |
| 20260906025012 | 25 | 11 | 3.2 | 9.7 | 0.00 | 0.00 | 0.00 | 43 | 1005.7 |
| 20260906024511 | 25 | 40 | 3.2 | 9.7 | 0.00 | 0.00 | 0.00 | 42 | 1005.8 |
| 20260906024011 | 25 | 22 | 1.6 | 8.0 | 0.00 | 0.00 | 0.00 | 42 | 1005.8 |
| 20260906023509 | 26 | 329 | 3.2 | 9.7 | 0.00 | 0.00 | 0.00 | 41 | 1005.9 |
| 20260906022508 | 26 | 10 | 1.6 | 19.3 | 0.00 | 0.00 | 0.00 | 40 | 1005.6 |
| 20260906022007 | 26 | 360 | 6.4 | 19.3 | 0.00 | 0.00 | 0.00 | 41 | 1005.8 |
| 20260906021506 | 26 | 61 | 1.6 | 8.0 | 0.00 | 0.00 | 0.00 | 40 | 1005.5 |
| 20260906021006 | 26 | 340 | 3.2 | 11.3 | 0.00 | 0.00 | 0.00 | 39 | 1005.2 |
| 20260906020504 | 27 | 292 | 4.8 | 14.5 | 0.00 | 0.00 | 0.00 | 39 | 1005.1 |
| 20260906020004 | 27 | 272 | 6.4 | 14.5 | 0.00 | 0.00 | 0.00 | 39 | 1005.1 |
| 20260906015502 | 27 | 283 | 8.0 | 17.7 | 0.00 | 0.00 | 0.00 | 38 | 1005.0 |
| 20260906015002 | 27 | 301 | 9.7 | 19.3 | 0.00 | 0.00 | 0.00 | 38 | 1004.8 |
| 20260906014505 | 27 | 291 | 8.0 | 19.3 | 0.00 | 0.00 | 0.00 | 38 | 1004.9 |
| 20260906014001 | 27 | 307 | 8.0 | 19.3 | 0.00 | 0.00 | 0.00 | 38 | 1004.8 |
| 20260906013501 | 27 | 285 | 9.7 | 17.7 | 0.00 | 0.00 | 0.00 | 37 | 1004.8 |
| 20260906012603 | 27 | 306 | 8.0 | 14.5 | 0.00 | 0.00 | 0.00 | 37 | 1004.9 |
| 20260906012100 | 27 | 300 | 9.7 | 16.1 | 0.00 | 0.00 | 0.00 | 37 | 1004.9 |
| 20260906011602 | 27 | 316 | 8.0 | 16.1 | 0.00 | 0.00 | 0.00 | 37 | 1004.9 |
| 20260906011059 | 27 | 266 | 4.8 | 16.1 | 0.00 | 0.00 | 0.00 | 37 | 1004.8 |
| 20260906010558 | 27 | 263 | 8.0 | 19.3 | 0.00 | 0.00 | 0.00 | 37 | 1004.9 |
| 20260906010128 | 27 | 279 | 8.0 | 19.3 | 0.00 | 0.00 | 0.00 | 37 | 1004.8 |
| 20260906005559 | 28 | 287 | 9.7 | 17.7 | 0.00 | 0.00 | 0.00 | 36 | 1004.9 |
| 20260906005055 | 28 | 281 | 9.7 | 20.9 | 0.00 | 0.00 | 0.00 | 36 | 1004.8 |
| 20260906004555 | 28 | 277 | 11.3 | 20.9 | 0.00 | 0.00 | 0.00 | 36 | 1004.8 |
| 20260906004053 | 28 | 298 | 12.9 | 22.5 | 0.00 | 0.00 | 0.00 | 36 | 1004.8 |
| 20260906003555 | 28 | 293 | 8.0 | 25.7 | 0.00 | 0.00 | 0.00 | 35 | 1004.9 |
| 20260906002551 | 29 | 288 | 14.5 | 27.4 | 0.00 | 0.00 | 0.00 | 34 | 1004.8 |
| 20260906002053 | 30 | 285 | 17.7 | 35.4 | 0.00 | 0.00 | 0.00 | 33 | 1004.8 |
| 20260906001602 | 30 | 226 | 14.5 | 35.4 | 0.00 | 0.00 | 0.00 | 31 | 1004.7 |
| 20260906001047 | 31 | 5 | 17.7 | 29.0 | 0.00 | 0.00 | 0.00 | 30 | 1004.7 |
| 20260906000547 | 31 | 314 | 11.3 | 22.5 | 0.00 | 0.00 | 0.00 | 30 | 1004.8 |
| 20260906000046 | 31 | 268 | 14.5 | 22.5 | 0.00 | 0.00 | 0.00 | 30 | 1004.7 |
| 20260905235545 | 31 | 279 | 6.4 | 16.1 | 0.00 | 0.00 | 0.00 | 30 | 1004.6 |
| 20260905235045 | 31 | 288 | 3.2 | 9.7 | 0.00 | 0.00 | 0.00 | 30 | 1004.6 |
| 20260905234546 | 32 | 276 | 4.8 | 9.7 | 0.00 | 0.00 | 0.00 | 29 | 1004.5 |
| 20260905234044 | 32 | 117 | 0.0 | 3.2 | 0.00 | 0.00 | 0.00 | 31 | 1004.5 |
| 20260905233544 | 32 | 115 | 0.0 | 6.4 | 0.00 | 0.00 | 0.00 | 31 | 1004.5 |
| 20260905232546 | 32 | 115 | 0.0 | 9.7 | 0.00 | 0.00 | 0.00 | 33 | 1004.3 |
| 20260905232043 | 32 | 115 | 3.2 | 11.3 | 0.00 | 0.00 | 0.00 | 30 | 1004.2 |
| 20260905231546 | 32 | 101 | 1.6 | 9.7 | 0.00 | 0.00 | 0.00 | 31 | 1004.2 |
| 20260905231042 | 33 | 98 | 0.0 | 6.4 | 0.00 | 0.00 | 0.00 | 29 | 1004.0 |
| 20260905230544 | 33 | 98 | 4.8 | 11.3 | 0.00 | 0.00 | 0.00 | 27 | 1003.9 |
| 20260905230048 | 33 | 110 | 1.6 | 14.5 | 0.00 | 0.00 | 0.00 | 25 | 1003.9 |
| 20260905225541 | 33 | 103 | 9.7 | 14.5 | 0.00 | 0.00 | 0.00 | 25 | 1003.9 |
| 20260905225041 | 33 | 82 | 11.3 | 17.7 | 0.00 | 0.00 | 0.00 | 25 | 1003.8 |
| 20260905224545 | 33 | 111 | 12.9 | 17.7 | 0.00 | 0.00 | 0.00 | 25 | 1003.8 |
| 20260905224040 | 33 | 90 | 4.8 | 17.7 | 0.00 | 0.00 | 0.00 | 25 | 1003.8 |
| 20260905223541 | 33 | 109 | 12.9 | 19.3 | 0.00 | 0.00 | 0.00 | 25 | 1003.8 |
| 20260905222541 | 33 | 64 | 14.5 | 22.5 | 0.00 | 0.00 | 0.00 | 26 | 1003.8 |
| 20260905222039 | 33 | 88 | 11.3 | 16.1 | 0.00 | 0.00 | 0.00 | 25 | 1003.9 |
| 20260905221550 | 33 | 123 | 9.7 | 16.1 | 0.00 | 0.00 | 0.00 | 26 | 1003.9 |
| 20260905221040 | 33 | 68 | 9.7 | 33.8 | 0.00 | 0.00 | 0.00 | 26 | 1003.9 |
| 20260905220539 | 33 | 98 | 12.9 | 33.8 | 0.00 | 0.00 | 0.00 | 26 | 1003.9 |
| 20260905220039 | 33 | 87 | 8.0 | 20.9 | 0.00 | 0.00 | 0.00 | 26 | 1004.0 |
| 20260905215538 | 33 | 103 | 9.7 | 20.9 | 0.00 | 0.00 | 0.00 | 25 | 1004.2 |
| 20260905215038 | 34 | 121 | 14.5 | 20.9 | 0.00 | 0.00 | 0.00 | 25 | 1004.2 |
| 20260905214536 | 34 | 5 | 9.7 | 17.7 | 0.00 | 0.00 | 0.00 | 24 | 1004.3 |
| 20260905214037 | 34 | 94 | 8.0 | 22.5 | 0.00 | 0.00 | 0.00 | 25 | 1004.4 |
| 20260905213536 | 34 | 92 | 8.0 | 27.4 | 0.00 | 0.00 | 0.00 | 23 | 1004.4 |